OK1CMJ-5 Weather Reports


time (UTC)temp
C
wind
direction
speed
KPH
gust
KPH
rain 1hr
cm
rain 24hr
cm
rain mn
cm
humidity
%
barometer
mb
20260504214033 13 314 1.6 3.2 0.10 0.10 0.10 50 1013.7
20260504212233 15 278 0.0 6.4 0.10 0.10 0.10 42 1014.0
20260504211334 15 346 3.2 6.4 0.05 0.05 0.05 38 1014.2
20260504210434 16 346 1.6 4.8 0.00 0.00 0.00 32 1014.2
20260504205533 16 331 1.6 8.0 0.00 0.00 0.00 32 1014.1
20260504204633 15 317 0.0 3.2 0.00 0.00 0.00 34 1014.1
20260504203733 15 265 0.0 3.2 0.00 0.00 0.00 36 1013.9
20260504202833 15 181 0.0 3.2 0.00 0.00 0.00 36 1013.9
20260504201934 15 181 0.0 3.2 0.00 0.00 0.00 35 1013.9
20260504200133 15 181 0.0 3.2 0.00 0.00 0.00 36 1013.8
20260504195233 15 181 0.0 1.6 0.00 0.00 0.00 35 1013.8
20260504194334 15 181 0.0 3.2 0.00 0.00 0.00 35 1013.9
20260504193433 15 181 0.0 3.2 0.00 0.00 0.00 35 1013.8
20260504192533 15 181 0.0 3.2 0.00 0.00 0.00 34 1014.0
20260504191633 15 181 0.0 3.2 0.00 0.00 0.00 34 1014.0
20260504190733 15 181 0.0 3.2 0.00 0.00 0.00 33 1013.9
20260504185833 15 181 0.0 3.2 0.00 0.00 0.00 32 1013.8
20260504184933 15 181 0.0 3.2 0.00 0.00 0.00 31 1013.7
20260504184034 16 181 0.0 3.2 0.00 0.00 0.00 28 1013.5
20260504183133 16 181 0.0 3.2 0.00 0.00 0.00 27 1013.5
20260504182233 17 181 0.0 1.6 0.00 0.00 0.00 24 1013.5
20260504181333 17 0 0.0 0.0 0.00 0.00 0.00 21 1013.3
20260504180433 18 0 0.0 0.0 0.00 0.00 0.00 16 1013.3
20260504175533 19 79 0.0 3.2 0.00 0.00 0.00 16 1013.2
20260504174633 19 17 0.0 3.2 0.00 0.00 0.00 16 1013.2
20260504173733 20 1 1.6 6.4 0.00 0.00 0.00 15 1013.2
20260504172833 20 337 3.2 6.4 0.00 0.00 0.00 13 1013.3
20260504170133 22 1 0.0 1.6 0.00 0.00 0.00 10 1013.4
20260504150433 27 355 1.6 8.0 0.00 0.00 0.00 10 1013.9
20260504141033 26 8 1.6 4.8 0.00 0.00 0.00 10 1014.3
20260504140133 25 339 1.6 4.8 0.00 0.00 0.00 10 1014.2
20260504130733 26 127 3.2 11.3 0.00 0.00 0.00 10 1014.6
20260504110133 24 340 3.2 12.9 0.00 0.00 0.00 10 1015.4
20260504081933 23 128 0.0 4.8 0.00 0.00 0.00 10 1016.3
20260504081033 22 332 3.2 6.4 0.00 0.00 0.00 10 1016.1
20260504080133 22 314 1.6 3.2 0.00 0.00 0.00 10 1015.9
20260504050133 10 318 1.6 4.8 0.00 0.00 0.00 60 1015.7
20260504044333 10 314 0.0 1.6 0.00 0.00 0.00 62 1015.6
20260504042533 8 314 0.0 1.6 0.00 0.00 0.00 64 1015.6
20260504040733 6 0 0.0 0.0 0.00 0.00 0.00 61 1015.5
20260504035833 6 0 0.0 0.0 0.00 0.00 0.00 59 1015.3
20260504034933 6 0 0.0 0.0 0.00 0.00 0.00 58 1015.4
20260504034036 6 0 0.0 0.0 0.00 0.00 0.00 57 1015.3
20260504032233 6 325 0.0 3.2 0.00 0.00 0.00 56 1015.3
20260504031333 6 312 0.0 3.2 0.00 0.00 0.00 56 1015.3
20260504025533 6 1 0.0 1.6 0.00 0.00 0.00 54 1015.2
20260504023733 7 1 0.0 3.2 0.00 0.00 0.00 53 1015.3
20260504022833 7 1 0.0 3.2 0.00 0.00 0.00 53 1015.3
20260504021933 7 324 0.0 3.2 0.00 0.00 0.00 53 1015.2
20260504021033 7 301 0.0 3.2 0.00 0.00 0.00 52 1015.2
20260504020133 7 314 0.0 1.6 0.00 0.00 0.00 50 1015.2
20260504013433 7 314 0.0 3.2 0.00 0.00 0.00 47 1015.3
20260504012533 7 314 0.0 1.6 0.00 0.00 0.00 47 1015.2
20260504011633 8 314 0.0 1.6 0.00 0.00 0.00 46 1015.2
20260504010733 8 315 0.0 1.6 0.00 0.00 0.00 46 1014.9
20260504005833 8 323 0.0 1.6 0.00 0.00 0.00 45 1014.9
20260504004033 8 292 0.0 3.2 0.00 0.00 0.00 45 1014.8
20260504003133 8 298 0.0 3.2 0.00 0.00 0.00 44 1014.9
20260504002233 8 314 0.0 1.6 0.00 0.00 0.00 42 1014.7
20260504001333 9 314 0.0 1.6 0.00 0.00 0.00 42 1014.7
20260504000433 9 314 0.0 1.6 0.00 0.00 0.00 42 1014.7
20260503235533 9 314 0.0 3.2 0.00 0.00 0.00 42 1014.8
20260503234633 10 314 0.0 3.2 0.00 0.00 0.00 42 1014.7
20260503233733 10 314 0.0 3.2 0.00 0.00 0.00 41 1014.8
20260503232833 10 314 0.0 1.6 0.00 0.00 0.00 40 1014.9
20260503231933 10 314 0.0 1.6 0.00 0.00 0.00 40 1014.9
20260503231033 10 315 0.0 1.6 0.00 0.00 0.00 39 1014.9
20260503225233 10 314 0.0 1.6 0.00 0.00 0.00 38 1014.8
20260503223433 10 314 0.0 3.2 0.00 0.00 0.00 37 1014.9
20260503222532 10 314 0.0 3.2 0.00 0.00 0.00 37 1015.0
20260503215833 11 225 0.0 3.2 0.00 0.00 0.00 35 1014.9